contact:dominique.lefevre@mio.osupytheas.fr, maurice.libes@osupytheas.fr, didier.mallarino@osupytheas.fr
Project:EMSO http://www.emso-fr.org/EMSO-France
Depth: 2436.0 m
Title:EMSO Ligure Ouest : Data MII capteur OXYGEN
DateTime,Latitude,Longitude,Optode-Type,Optode_Serial,Oxygen,Saturation_Oxygen,Temperature
DateTime,Latitude,Longitude,Optode-Type,Optode_Serial,µmol.l-1,%,degC
2019-06-07T00:01:16,42.805,6.029,4330,1995,193.376,59.148,13.296
2019-06-07T00:04:16,42.805,6.029,4330,1995,193.244,59.104,13.294
2019-06-07T00:07:16,42.805,6.029,4330,1995,193.331,59.133,13.295
2019-06-07T00:10:16,42.805,6.029,4330,1995,193.350,59.135,13.293
2019-06-07T00:13:16,42.805,6.029,4330,1995,193.203,59.093,13.295
2019-06-07T00:16:16,42.805,6.029,4330,1995,193.182,59.087,13.295
2019-06-07T00:19:16,42.805,6.029,4330,1995,193.285,59.117,13.294
2019-06-07T00:22:16,42.805,6.029,4330,1995,193.397,59.154,13.296
2019-06-07T00:25:16,42.805,6.029,4330,1995,193.361,59.143,13.296
2019-06-07T00:28:16,42.805,6.029,4330,1995,193.337,59.134,13.295
2019-06-07T00:31:16,42.805,6.029,4330,1995,193.472,59.174,13.294
2019-06-07T00:34:16,42.805,6.029,4330,1995,193.345,59.136,13.294
2019-06-07T00:37:16,42.805,6.029,4330,1995,193.243,59.100,13.291
2019-06-07T00:40:16,42.805,6.029,4330,1995,193.258,59.106,13.292
2019-06-07T00:43:16,42.805,6.029,4330,1995,193.364,59.142,13.294
2019-06-07T00:46:16,42.805,6.029,4330,1995,193.436,59.161,13.292
2019-06-07T00:49:16,42.805,6.029,4330,1995,193.407,59.153,13.293
2019-06-07T00:52:16,42.805,6.029,4330,1995,193.525,59.188,13.292
2019-06-07T00:55:16,42.805,6.029,4330,1995,193.552,59.196,13.292
2019-06-07T00:58:16,42.805,6.029,4330,1995,193.437,59.160,13.291
2019-06-07T01:01:16,42.805,6.029,4330,1995,193.367,59.139,13.292
2019-06-07T01:04:16,42.805,6.029,4330,1995,193.280,59.111,13.291
2019-06-07T01:07:16,42.805,6.029,4330,1995,193.381,59.142,13.291
2019-06-07T01:10:16,42.805,6.029,4330,1995,193.457,59.169,13.293
2019-06-07T01:13:16,42.805,6.029,4330,1995,193.423,59.158,13.293
2019-06-07T01:16:16,42.805,6.029,4330,1995,193.522,59.189,13.293
2019-06-07T01:19:16,42.805,6.029,4330,1995,193.567,59.201,13.292
2019-06-07T01:22:16,42.805,6.029,4330,1995,193.531,59.188,13.290
2019-06-07T01:25:16,42.805,6.029,4330,1995,193.601,59.212,13.293
2019-06-07T01:28:16,42.805,6.029,4330,1995,193.680,59.235,13.292
2019-06-07T01:31:16,42.805,6.029,4330,1995,193.767,59.264,13.293
2019-06-07T01:34:16,42.805,6.029,4330,1995,193.736,59.254,13.293
2019-06-07T01:37:16,42.805,6.029,4330,1995,193.724,59.249,13.292
2019-06-07T01:40:16,42.805,6.029,4330,1995,193.668,59.233,13.293
2019-06-07T01:43:16,42.805,6.029,4330,1995,193.733,59.255,13.295
2019-06-07T01:46:16,42.805,6.029,4330,1995,193.695,59.243,13.294
2019-06-07T01:49:16,42.805,6.029,4330,1995,193.763,59.263,13.294
2019-06-07T01:52:16,42.805,6.029,4330,1995,193.815,59.279,13.293
2019-06-07T01:55:16,42.805,6.029,4330,1995,193.688,59.238,13.292
2019-06-07T01:58:16,42.805,6.029,4330,1995,193.698,59.242,13.293
2019-06-07T02:01:16,42.805,6.029,4330,1995,193.774,59.266,13.294
2019-06-07T02:04:16,42.805,6.029,4330,1995,193.637,59.225,13.294
2019-06-07T02:07:16,42.805,6.029,4330,1995,193.617,59.216,13.292
2019-06-07T02:10:16,42.805,6.029,4330,1995,193.611,59.218,13.295
2019-06-07T02:13:16,42.805,6.029,4330,1995,193.666,59.232,13.293
2019-06-07T02:16:16,42.805,6.029,4330,1995,193.654,59.229,13.293
2019-06-07T02:19:16,42.805,6.029,4330,1995,193.568,59.204,13.294
2019-06-07T02:22:16,42.805,6.029,4330,1995,193.667,59.233,13.294
2019-06-07T02:25:16,42.805,6.029,4330,1995,193.746,59.254,13.291
2019-06-07T02:28:16,42.805,6.029,4330,1995,193.770,59.262,13.292
2019-06-07T02:31:16,42.805,6.029,4330,1995,193.822,59.277,13.291
2019-06-07T02:34:16,42.805,6.029,4330,1995,193.800,59.271,13.291
2019-06-07T02:37:16,42.805,6.029,4330,1995,193.708,59.243,13.291
2019-06-07T02:40:16,42.805,6.029,4330,1995,193.804,59.272,13.291
2019-06-07T02:43:16,42.805,6.029,4330,1995,193.732,59.251,13.291
2019-06-07T02:46:16,42.805,6.029,4330,1995,193.758,59.258,13.291
2019-06-07T02:49:16,42.805,6.029,4330,1995,193.794,59.269,13.291
2019-06-07T02:52:16,42.805,6.029,4330,1995,193.803,59.271,13.290
2019-06-07T02:55:16,42.805,6.029,4330,1995,193.866,59.290,13.290
2019-06-07T02:58:16,42.805,6.029,4330,1995,193.908,59.302,13.290
2019-06-07T03:01:16,42.805,6.029,4330,1995,194.024,59.337,13.289
2019-06-07T03:04:16,42.805,6.029,4330,1995,193.983,59.325,13.290
2019-06-07T03:07:16,42.805,6.029,4330,1995,194.091,59.357,13.289
2019-06-07T03:10:16,42.805,6.029,4330,1995,194.029,59.339,13.290
2019-06-07T03:13:16,42.805,6.029,4330,1995,194.060,59.349,13.290
2019-06-07T03:16:16,42.805,6.029,4330,1995,194.122,59.367,13.289
2019-06-07T03:19:16,42.805,6.029,4330,1995,194.137,59.373,13.290
2019-06-07T03:22:16,42.805,6.029,4330,1995,194.026,59.339,13.291
2019-06-07T03:25:16,42.805,6.029,4330,1995,194.087,59.358,13.290
2019-06-07T03:28:16,42.805,6.029,4330,1995,194.138,59.374,13.291
2019-06-07T03:31:16,42.805,6.029,4330,1995,194.153,59.377,13.290
2019-06-07T03:34:16,42.805,6.029,4330,1995,194.219,59.397,13.289
2019-06-07T03:37:16,42.805,6.029,4330,1995,194.137,59.374,13.291
2019-06-07T03:40:16,42.805,6.029,4330,1995,194.278,59.417,13.291
2019-06-07T03:43:16,42.805,6.029,4330,1995,194.162,59.381,13.290
2019-06-07T03:46:16,42.805,6.029,4330,1995,194.242,59.404,13.290
2019-06-07T03:49:16,42.805,6.029,4330,1995,194.207,59.394,13.291
2019-06-07T03:52:16,42.805,6.029,4330,1995,194.210,59.395,13.291
2019-06-07T03:55:16,42.805,6.029,4330,1995,194.214,59.396,13.290
2019-06-07T03:58:16,42.805,6.029,4330,1995,194.277,59.416,13.290
2019-06-07T04:01:16,42.805,6.029,4330,1995,194.319,59.431,13.292
2019-06-07T04:04:16,42.805,6.029,4330,1995,194.345,59.436,13.290
2019-06-07T04:07:16,42.805,6.029,4330,1995,194.337,59.433,13.290
2019-06-07T04:10:16,42.805,6.029,4330,1995,194.351,59.439,13.291
2019-06-07T04:13:16,42.805,6.029,4330,1995,194.303,59.428,13.294
2019-06-07T04:16:16,42.805,6.029,4330,1995,194.308,59.427,13.292
2019-06-07T04:19:16,42.805,6.029,4330,1995,194.381,59.448,13.291
2019-06-07T04:22:16,42.805,6.029,4330,1995,194.354,59.441,13.292
2019-06-07T04:25:16,42.805,6.029,4330,1995,194.321,59.430,13.291
2019-06-07T04:28:16,42.805,6.029,4330,1995,194.351,59.439,13.291
2019-06-07T04:31:16,42.805,6.029,4330,1995,194.343,59.437,13.291
2019-06-07T04:34:16,42.805,6.029,4330,1995,194.404,59.456,13.292
2019-06-07T04:37:16,42.805,6.029,4330,1995,194.528,59.492,13.290
2019-06-07T04:40:16,42.805,6.029,4330,1995,194.468,59.476,13.292
2019-06-07T04:43:16,42.805,6.029,4330,1995,194.434,59.465,13.291
2019-06-07T04:46:16,42.805,6.029,4330,1995,194.492,59.482,13.291
2019-06-07T04:49:16,42.805,6.029,4330,1995,194.490,59.481,13.290
2019-06-07T04:52:16,42.805,6.029,4330,1995,194.482,59.480,13.292
2019-06-07T04:55:16,42.805,6.029,4330,1995,194.485,59.480,13.291
2019-06-07T04:58:16,42.805,6.029,4330,1995,194.471,59.475,13.291
2019-06-07T05:01:16,42.805,6.029,4330,1995,194.460,59.471,13.290
2019-06-07T05:04:16,42.805,6.029,4330,1995,194.543,59.495,13.289
2019-06-07T05:07:16,42.805,6.029,4330,1995,194.521,59.490,13.290
2019-06-07T05:10:16,42.805,6.029,4330,1995,194.474,59.475,13.289
2019-06-07T05:13:16,42.805,6.029,4330,1995,194.502,59.485,13.290
2019-06-07T05:16:16,42.805,6.029,4330,1995,194.482,59.477,13.289
2019-06-07T05:19:16,42.805,6.029,4330,1995,194.456,59.470,13.290
2019-06-07T05:22:16,42.805,6.029,4330,1995,194.609,59.516,13.289
2019-06-07T05:25:16,42.805,6.029,4330,1995,194.656,59.530,13.289
2019-06-07T05:28:16,42.805,6.029,4330,1995,194.575,59.506,13.289
2019-06-07T05:31:16,42.805,6.029,4330,1995,194.692,59.542,13.290
2019-06-07T05:34:16,42.805,6.029,4330,1995,194.664,59.532,13.289
2019-06-07T05:37:16,42.805,6.029,4330,1995,194.657,59.531,13.290
2019-06-07T05:40:16,42.805,6.029,4330,1995,194.631,59.525,13.291
2019-06-07T05:43:16,42.805,6.029,4330,1995,194.652,59.530,13.290
2019-06-07T05:46:16,42.805,6.029,4330,1995,194.680,59.539,13.290
2019-06-07T05:49:16,42.805,6.029,4330,1995,194.667,59.534,13.289
2019-06-07T05:52:16,42.805,6.029,4330,1995,194.707,59.546,13.290
2019-06-07T05:55:16,42.805,6.029,4330,1995,194.672,59.537,13.290
2019-06-07T05:58:16,42.805,6.029,4330,1995,194.627,59.521,13.289
2019-06-07T06:01:16,42.805,6.029,4330,1995,194.720,59.550,13.289
2019-06-07T06:04:16,42.805,6.029,4330,1995,194.737,59.556,13.290
2019-06-07T06:07:16,42.805,6.029,4330,1995,194.649,59.533,13.293
2019-06-07T06:10:16,42.805,6.029,4330,1995,194.639,59.526,13.290
2019-06-07T06:13:16,42.805,6.029,4330,1995,194.631,59.523,13.290
2019-06-07T06:16:16,42.805,6.029,4330,1995,194.648,59.530,13.291
2019-06-07T06:19:16,42.805,6.029,4330,1995,194.635,59.526,13.291
2019-06-07T06:22:16,42.805,6.029,4330,1995,194.620,59.522,13.291
2019-06-07T06:25:16,42.805,6.029,4330,1995,194.540,59.498,13.292
2019-06-07T06:28:16,42.805,6.029,4330,1995,194.584,59.511,13.292
2019-06-07T06:31:16,42.805,6.029,4330,1995,194.565,59.505,13.291
2019-06-07T06:34:16,42.805,6.029,4330,1995,194.580,59.510,13.291
2019-06-07T06:37:16,42.805,6.029,4330,1995,194.559,59.502,13.291
2019-06-07T06:40:16,42.805,6.029,4330,1995,194.570,59.506,13.291
2019-06-07T06:43:16,42.805,6.029,4330,1995,194.523,59.492,13.291
2019-06-07T06:46:16,42.805,6.029,4330,1995,194.571,59.506,13.291
2019-06-07T06:49:16,42.805,6.029,4330,1995,194.605,59.516,13.291
2019-06-07T06:52:16,42.805,6.029,4330,1995,194.579,59.508,13.290
2019-06-07T06:55:16,42.805,6.029,4330,1995,194.693,59.542,13.290
2019-06-07T06:58:16,42.805,6.029,4330,1995,194.674,59.537,13.290
2019-06-07T07:01:16,42.805,6.029,4330,1995,194.675,59.537,13.290
2019-06-07T07:04:16,42.805,6.029,4330,1995,194.678,59.538,13.290
2019-06-07T07:07:16,42.805,6.029,4330,1995,194.663,59.533,13.290
2019-06-07T07:10:16,42.805,6.029,4330,1995,194.682,59.539,13.290
2019-06-07T07:13:16,42.805,6.029,4330,1995,194.696,59.543,13.289
2019-06-07T07:16:16,42.805,6.029,4330,1995,194.593,59.513,13.291
2019-06-07T07:19:16,42.805,6.029,4330,1995,194.748,59.558,13.289
2019-06-07T07:22:16,42.805,6.029,4330,1995,194.679,59.537,13.289
2019-06-07T07:25:16,42.805,6.029,4330,1995,194.716,59.547,13.288
2019-06-07T07:28:16,42.805,6.029,4330,1995,194.712,59.547,13.289
2019-06-07T07:31:16,42.805,6.029,4330,1995,194.664,59.532,13.289
2019-06-07T07:34:16,42.805,6.029,4330,1995,194.644,59.526,13.289
2019-06-07T07:37:16,42.805,6.029,4330,1995,194.686,59.540,13.290
2019-06-07T07:40:16,42.805,6.029,4330,1995,194.588,59.510,13.290
2019-06-07T07:43:16,42.805,6.029,4330,1995,194.544,59.497,13.290
2019-06-07T07:46:16,42.805,6.029,4330,1995,194.499,59.483,13.290
2019-06-07T07:49:16,42.805,6.029,4330,1995,194.530,59.492,13.289
2019-06-07T07:52:16,42.805,6.029,4330,1995,194.568,59.504,13.290
2019-06-07T07:55:16,42.805,6.029,4330,1995,194.580,59.507,13.289
2019-06-07T07:58:16,42.805,6.029,4330,1995,194.568,59.503,13.289
2019-06-07T08:01:16,42.805,6.029,4330,1995,194.610,59.519,13.291
2019-06-07T08:04:16,42.805,6.029,4330,1995,194.600,59.514,13.290
2019-06-07T08:07:16,42.805,6.029,4330,1995,194.667,59.536,13.291
2019-06-07T08:10:16,42.805,6.029,4330,1995,194.529,59.494,13.291
2019-06-07T08:13:16,42.805,6.029,4330,1995,194.565,59.505,13.291
2019-06-07T08:16:16,42.805,6.029,4330,1995,194.574,59.506,13.290
2019-06-07T08:19:16,42.805,6.029,4330,1995,194.553,59.498,13.289
2019-06-07T08:22:16,42.805,6.029,4330,1995,194.581,59.507,13.289
2019-06-07T08:25:16,42.805,6.029,4330,1995,194.598,59.516,13.292
2019-06-07T08:28:16,42.805,6.029,4330,1995,194.655,59.532,13.291
2019-06-07T08:31:16,42.805,6.029,4330,1995,194.560,59.505,13.292
2019-06-07T08:34:16,42.805,6.029,4330,1995,194.571,59.507,13.291
2019-06-07T08:37:16,42.805,6.029,4330,1995,194.618,59.519,13.290
2019-06-07T08:40:16,42.805,6.029,4330,1995,194.553,59.501,13.291
2019-06-07T08:43:16,42.805,6.029,4330,1995,194.538,59.497,13.291
2019-06-07T08:46:16,42.805,6.029,4330,1995,194.471,59.477,13.292
2019-06-07T08:49:16,42.805,6.029,4330,1995,194.419,59.461,13.292
2019-06-07T08:52:16,42.805,6.029,4330,1995,194.510,59.492,13.294
2019-06-07T08:55:16,42.805,6.029,4330,1995,194.395,59.454,13.292
2019-06-07T08:58:16,42.805,6.029,4330,1995,194.381,59.449,13.291
2019-06-07T09:01:16,42.805,6.029,4330,1995,194.408,59.459,13.293
2019-06-07T09:04:16,42.805,6.029,4330,1995,194.402,59.456,13.292
2019-06-07T09:07:16,42.805,6.029,4330,1995,194.437,59.465,13.291
2019-06-07T09:10:16,42.805,6.029,4330,1995,194.509,59.488,13.291
2019-06-07T09:13:16,42.805,6.029,4330,1995,194.523,59.492,13.291
2019-06-07T09:16:16,42.805,6.029,4330,1995,194.446,59.467,13.290
2019-06-07T09:19:16,42.805,6.029,4330,1995,194.485,59.479,13.290
2019-06-07T09:22:15,42.805,6.029,4330,1995,194.403,59.455,13.291
2019-06-07T09:25:15,42.805,6.029,4330,1995,194.537,59.494,13.289
2019-06-07T09:28:15,42.805,6.029,4330,1995,194.563,59.502,13.289
2019-06-07T09:31:15,42.805,6.029,4330,1995,194.545,59.496,13.289
2019-06-07T09:34:15,42.805,6.029,4330,1995,194.578,59.506,13.289
2019-06-07T09:37:15,42.805,6.029,4330,1995,194.513,59.488,13.290
2019-06-07T09:40:15,42.805,6.029,4330,1995,194.487,59.479,13.289
2019-06-07T09:43:15,42.805,6.029,4330,1995,194.497,59.483,13.290
2019-06-07T09:46:15,42.805,6.029,4330,1995,194.549,59.496,13.288
2019-06-07T09:49:15,42.805,6.029,4330,1995,194.499,59.484,13.290
2019-06-07T09:52:15,42.805,6.029,4330,1995,194.437,59.465,13.291
2019-06-07T09:55:15,42.805,6.029,4330,1995,194.427,59.462,13.290
2019-06-07T09:58:15,42.805,6.029,4330,1995,194.356,59.439,13.290
2019-06-07T10:01:15,42.805,6.029,4330,1995,194.429,59.462,13.290
2019-06-07T10:04:15,42.805,6.029,4330,1995,194.473,59.477,13.291
2019-06-07T10:07:15,42.805,6.029,4330,1995,194.452,59.469,13.290
2019-06-07T10:10:15,42.805,6.029,4330,1995,194.411,59.456,13.290
2019-06-07T10:13:15,42.805,6.029,4330,1995,194.434,59.465,13.291
2019-06-07T10:16:15,42.805,6.029,4330,1995,194.454,59.469,13.290
2019-06-07T10:19:15,42.805,6.029,4330,1995,194.451,59.470,13.291
2019-06-07T10:22:15,42.805,6.029,4330,1995,194.501,59.484,13.290
2019-06-07T10:25:15,42.805,6.029,4330,1995,194.410,59.456,13.290
2019-06-07T10:28:15,42.805,6.029,4330,1995,194.537,59.494,13.289
2019-06-07T10:31:15,42.805,6.029,4330,1995,194.579,59.508,13.291
2019-06-07T10:34:15,42.805,6.029,4330,1995,194.481,59.478,13.290
2019-06-07T10:37:15,42.805,6.029,4330,1995,194.421,59.459,13.290
2019-06-07T10:40:15,42.805,6.029,4330,1995,194.466,59.472,13.289
2019-06-07T10:43:15,42.805,6.029,4330,1995,194.562,59.503,13.290
2019-06-07T10:46:15,42.805,6.029,4330,1995,194.487,59.482,13.292
2019-06-07T10:49:15,42.805,6.029,4330,1995,194.526,59.491,13.290
2019-06-07T10:52:15,42.805,6.029,4330,1995,194.439,59.465,13.290
2019-06-07T10:55:15,42.805,6.029,4330,1995,194.418,59.458,13.289
2019-06-07T10:58:15,42.805,6.029,4330,1995,194.319,59.429,13.291
2019-06-07T11:01:15,42.805,6.029,4330,1995,194.361,59.441,13.290
2019-06-07T11:04:15,42.805,6.029,4330,1995,194.352,59.439,13.291
2019-06-07T11:07:15,42.805,6.029,4330,1995,194.282,59.417,13.290
2019-06-07T11:10:15,42.805,6.029,4330,1995,194.195,59.394,13.293
2019-06-07T11:13:15,42.805,6.029,4330,1995,194.214,59.397,13.291
2019-06-07T11:16:15,42.805,6.029,4330,1995,194.258,59.410,13.290
2019-06-07T11:19:15,42.805,6.029,4330,1995,194.278,59.418,13.292
2019-06-07T11:22:15,42.805,6.029,4330,1995,194.128,59.371,13.291
2019-06-07T11:25:15,42.805,6.029,4330,1995,194.126,59.369,13.290
2019-06-07T11:28:15,42.805,6.029,4330,1995,194.130,59.371,13.291
2019-06-07T11:31:15,42.805,6.029,4330,1995,194.214,59.398,13.291
2019-06-07T11:34:15,42.805,6.029,4330,1995,194.210,59.396,13.291
2019-06-07T11:37:15,42.805,6.029,4330,1995,194.191,59.390,13.291
2019-06-07T11:40:15,42.805,6.029,4330,1995,194.041,59.343,13.290
2019-06-07T11:43:15,42.805,6.029,4330,1995,194.078,59.354,13.290
2019-06-07T11:46:15,42.805,6.029,4330,1995,193.912,59.303,13.289
2019-06-07T11:49:15,42.805,6.029,4330,1995,194.072,59.353,13.290
2019-06-07T11:52:15,42.805,6.029,4330,1995,194.178,59.385,13.290
2019-06-07T11:55:15,42.805,6.029,4330,1995,194.223,59.399,13.290
2019-06-07T11:58:15,42.805,6.029,4330,1995,194.277,59.416,13.290
2019-06-07T12:01:15,42.805,6.029,4330,1995,194.317,59.428,13.291
2019-06-07T12:04:15,42.805,6.029,4330,1995,194.290,59.419,13.290
2019-06-07T12:07:15,42.805,6.029,4330,1995,194.304,59.424,13.291
2019-06-07T12:10:15,42.805,6.029,4330,1995,194.349,59.437,13.290
2019-06-07T12:13:15,42.805,6.029,4330,1995,194.364,59.442,13.290
2019-06-07T12:16:15,42.805,6.029,4330,1995,194.245,59.408,13.292
2019-06-07T12:19:15,42.805,6.029,4330,1995,194.413,59.458,13.291
2019-06-07T12:22:15,42.805,6.029,4330,1995,194.461,59.473,13.291
2019-06-07T12:25:15,42.805,6.029,4330,1995,194.352,59.440,13.292
2019-06-07T12:28:15,42.805,6.029,4330,1995,194.320,59.430,13.291
2019-06-07T12:31:15,42.805,6.029,4330,1995,194.308,59.425,13.290
2019-06-07T12:34:15,42.805,6.029,4330,1995,194.278,59.416,13.290
2019-06-07T12:37:15,42.805,6.029,4330,1995,194.332,59.434,13.291
2019-06-07T12:40:15,42.805,6.029,4330,1995,194.333,59.436,13.293
2019-06-07T12:43:15,42.805,6.029,4330,1995,194.273,59.418,13.293
2019-06-07T12:46:15,42.805,6.029,4330,1995,194.238,59.406,13.292
2019-06-07T12:49:15,42.805,6.029,4330,1995,194.366,59.444,13.291
2019-06-07T12:52:15,42.805,6.029,4330,1995,194.275,59.418,13.292
2019-06-07T12:55:15,42.805,6.029,4330,1995,194.507,59.488,13.292
2019-06-07T12:58:15,42.805,6.029,4330,1995,194.570,59.508,13.292
2019-06-07T13:01:15,42.805,6.029,4330,1995,194.519,59.493,13.293
2019-06-07T13:04:15,42.805,6.029,4330,1995,194.498,59.486,13.293
2019-06-07T13:07:15,42.805,6.029,4330,1995,194.549,59.503,13.293
2019-06-07T13:10:15,42.805,6.029,4330,1995,194.469,59.477,13.292
2019-06-07T13:13:15,42.805,6.029,4330,1995,194.459,59.476,13.294
2019-06-07T13:16:15,42.805,6.029,4330,1995,194.403,59.457,13.292
2019-06-07T13:19:15,42.805,6.029,4330,1995,194.470,59.477,13.292
2019-06-07T13:22:15,42.805,6.029,4330,1995,194.286,59.422,13.293
2019-06-07T13:25:15,42.805,6.029,4330,1995,194.414,59.460,13.292
2019-06-07T13:28:15,42.805,6.029,4330,1995,194.535,59.497,13.292
2019-06-07T13:31:15,42.805,6.029,4330,1995,194.398,59.456,13.293
2019-06-07T13:34:15,42.805,6.029,4330,1995,194.520,59.491,13.291
2019-06-07T13:37:15,42.805,6.029,4330,1995,194.489,59.481,13.291
2019-06-07T13:40:15,42.805,6.029,4330,1995,194.467,59.476,13.292
2019-06-07T13:43:15,42.805,6.029,4330,1995,194.418,59.462,13.292
2019-06-07T13:46:15,42.805,6.029,4330,1995,194.446,59.468,13.291
2019-06-07T13:49:15,42.805,6.029,4330,1995,194.523,59.491,13.290
2019-06-07T13:52:15,42.805,6.029,4330,1995,194.388,59.451,13.291
2019-06-07T13:55:15,42.805,6.029,4330,1995,194.415,59.461,13.292
2019-06-07T13:58:15,42.805,6.029,4330,1995,194.555,59.501,13.290
2019-06-07T14:01:15,42.805,6.029,4330,1995,194.633,59.524,13.290
2019-06-07T14:04:15,42.805,6.029,4330,1995,194.462,59.473,13.291
2019-06-07T14:07:15,42.805,6.029,4330,1995,194.451,59.469,13.291
2019-06-07T14:10:15,42.805,6.029,4330,1995,194.494,59.481,13.289
2019-06-07T14:13:15,42.805,6.029,4330,1995,194.468,59.472,13.289
2019-06-07T14:16:15,42.805,6.029,4330,1995,194.406,59.456,13.291
2019-06-07T14:19:15,42.805,6.029,4330,1995,194.449,59.469,13.291
2019-06-07T14:22:15,42.805,6.029,4330,1995,194.303,59.425,13.291
2019-06-07T14:25:15,42.805,6.029,4330,1995,194.283,59.421,13.293
2019-06-07T14:28:15,42.805,6.029,4330,1995,194.149,59.377,13.291
2019-06-07T14:31:15,42.805,6.029,4330,1995,194.223,59.400,13.291
2019-06-07T14:34:15,42.805,6.029,4330,1995,194.241,59.407,13.292
2019-06-07T14:37:15,42.805,6.029,4330,1995,194.352,59.438,13.290
2019-06-07T14:40:15,42.805,6.029,4330,1995,194.415,59.459,13.291
2019-06-07T14:43:15,42.805,6.029,4330,1995,194.404,59.457,13.293
2019-06-07T14:46:15,42.805,6.029,4330,1995,194.140,59.375,13.291
2019-06-07T14:49:15,42.805,6.029,4330,1995,194.153,59.381,13.292
2019-06-07T14:52:15,42.805,6.029,4330,1995,194.180,59.388,13.292
2019-06-07T14:55:15,42.805,6.029,4330,1995,194.072,59.355,13.292
2019-06-07T14:58:15,42.805,6.029,4330,1995,194.287,59.421,13.292
2019-06-07T15:01:15,42.805,6.029,4330,1995,194.156,59.385,13.295
2019-06-07T15:04:15,42.805,6.029,4330,1995,194.221,59.403,13.294
2019-06-07T15:07:15,42.805,6.029,4330,1995,194.211,59.399,13.293
2019-06-07T15:10:15,42.805,6.029,4330,1995,194.328,59.437,13.295
2019-06-07T15:13:15,42.805,6.029,4330,1995,194.368,59.446,13.292
2019-06-07T15:16:15,42.805,6.029,4330,1995,194.264,59.418,13.295
2019-06-07T15:19:15,42.805,6.029,4330,1995,194.280,59.423,13.295
2019-06-07T15:22:15,42.805,6.029,4330,1995,194.291,59.426,13.295
2019-06-07T15:25:15,42.805,6.029,4330,1995,194.179,59.392,13.295
2019-06-07T15:28:15,42.805,6.029,4330,1995,194.247,59.411,13.294
2019-06-07T15:31:15,42.805,6.029,4330,1995,194.114,59.372,13.295
2019-06-07T15:34:15,42.805,6.029,4330,1995,194.125,59.372,13.293
2019-06-07T15:37:15,42.805,6.029,4330,1995,194.110,59.370,13.295
2019-06-07T15:40:15,42.805,6.029,4330,1995,194.092,59.364,13.294
2019-06-07T15:43:15,42.805,6.029,4330,1995,194.198,59.396,13.294
2019-06-07T15:46:15,42.805,6.029,4330,1995,194.286,59.423,13.294
2019-06-07T15:49:15,42.805,6.029,4330,1995,194.193,59.394,13.293
2019-06-07T15:52:15,42.805,6.029,4330,1995,194.134,59.373,13.291
2019-06-07T15:55:15,42.805,6.029,4330,1995,194.262,59.415,13.293
2019-06-07T15:58:15,42.805,6.029,4330,1995,194.224,59.403,13.293
2019-06-07T16:01:15,42.805,6.029,4330,1995,194.080,59.357,13.291
2019-06-07T16:04:15,42.805,6.029,4330,1995,194.024,59.340,13.291
2019-06-07T16:07:15,42.805,6.029,4330,1995,194.065,59.352,13.291
2019-06-07T16:10:15,42.805,6.029,4330,1995,193.988,59.328,13.291
2019-06-07T16:13:15,42.805,6.029,4330,1995,194.044,59.344,13.290
2019-06-07T16:16:15,42.805,6.029,4330,1995,194.097,59.361,13.291
2019-06-07T16:19:15,42.805,6.029,4330,1995,194.197,59.392,13.291
2019-06-07T16:22:15,42.805,6.029,4330,1995,194.207,59.394,13.290
2019-06-07T16:25:15,42.805,6.029,4330,1995,194.133,59.371,13.290
2019-06-07T16:28:15,42.805,6.029,4330,1995,194.075,59.353,13.290
2019-06-07T16:31:15,42.805,6.029,4330,1995,194.041,59.343,13.290
2019-06-07T16:34:15,42.805,6.029,4330,1995,194.202,59.393,13.290
2019-06-07T16:37:15,42.805,6.029,4330,1995,194.211,59.397,13.291
2019-06-07T16:40:15,42.805,6.029,4330,1995,194.249,59.409,13.292
2019-06-07T16:43:15,42.805,6.029,4330,1995,194.287,59.419,13.291
2019-06-07T16:46:15,42.805,6.029,4330,1995,194.141,59.376,13.292
2019-06-07T16:49:15,42.805,6.029,4330,1995,194.146,59.377,13.292
2019-06-07T16:52:15,42.805,6.029,4330,1995,194.154,59.379,13.291
2019-06-07T16:55:15,42.805,6.029,4330,1995,194.128,59.370,13.290
2019-06-07T16:58:15,42.805,6.029,4330,1995,194.073,59.355,13.292
2019-06-07T17:01:15,42.805,6.029,4330,1995,194.145,59.376,13.291
2019-06-07T17:04:15,42.805,6.029,4330,1995,194.162,59.380,13.290
2019-06-07T17:07:15,42.805,6.029,4330,1995,194.024,59.342,13.293
2019-06-07T17:10:15,42.805,6.029,4330,1995,194.092,59.361,13.292
2019-06-07T17:13:15,42.805,6.029,4330,1995,194.073,59.355,13.292
2019-06-07T17:16:15,42.805,6.029,4330,1995,194.038,59.346,13.293
2019-06-07T17:19:15,42.805,6.029,4330,1995,194.004,59.334,13.292
2019-06-07T17:22:15,42.805,6.029,4330,1995,194.096,59.363,13.292
2019-06-07T17:25:15,42.805,6.029,4330,1995,194.055,59.350,13.292
2019-06-07T17:28:15,42.805,6.029,4330,1995,194.137,59.376,13.293
2019-06-07T17:31:15,42.805,6.029,4330,1995,194.213,59.399,13.292
2019-06-07T17:34:15,42.805,6.029,4330,1995,194.181,59.389,13.293
2019-06-07T17:37:15,42.805,6.029,4330,1995,194.181,59.387,13.291
2019-06-07T17:40:15,42.805,6.029,4330,1995,194.230,59.405,13.293
2019-06-07T17:43:15,42.805,6.029,4330,1995,194.245,59.407,13.291
2019-06-07T17:46:15,42.805,6.029,4330,1995,194.192,59.391,13.292
2019-06-07T17:49:15,42.805,6.029,4330,1995,194.237,59.405,13.292
2019-06-07T17:52:15,42.805,6.029,4330,1995,194.344,59.437,13.291
2019-06-07T17:55:15,42.805,6.029,4330,1995,194.235,59.404,13.291
2019-06-07T17:58:15,42.805,6.029,4330,1995,194.244,59.407,13.291
2019-06-07T18:01:15,42.805,6.029,4330,1995,194.206,59.397,13.292
2019-06-07T18:04:15,42.805,6.029,4330,1995,194.157,59.380,13.291
2019-06-07T18:07:15,42.805,6.029,4330,1995,194.132,59.373,13.292